STARLINK-1166, 45060

Orbit data source: Space-Track

STARLINK-1166, 45060 is a payload satellite owned by SpaceX/Seattle (US) in LEO that was launched on Wed, 29 Jan 2020 UTC via an FALCON 9 launch vehicle from the Air Force Eastern Test Range (AFETR). Payload-class satellites include a variety of spacecraft equipped with specific instruments for various scientific and technological missions. These include communications satellites like Starlink; space stations such as the ISS; scientific satellites like the Hubble; Earth observation satellites from companies like Planet Labs, Umbra, and HawkEye 360; GPS; miniature CubeSats for education and research; and military/defense satellites.

Loading next visibility...
Identifier
45060, 2020-006S
Orbit
LEO
Country
Flag of USUS
Related business
Manufacturer
SpaceX/Seattle
Mission
Operational Commercial Communications
Bus & Motor
STARLINK, Unknown motor
Mass
260 kg wet, ~248 kg dry
Launch date (UTC)
2020-01-29 (6 years ago)
Launch vehicle
FALCON 9
Launch site
Air Force Eastern Test Range (AFETR)
Object type
Payload
Rocket body
Debris
Shape & HBR
Box + 1 Pan, 4.4 m
Radar Cross Section
13.562 m², Large (>1 m²)

Expand to show TLE details & history
Last TLE update: 10 hours ago

TLE from 10 hours ago
0 STARLINK-1166
1 45060U 20006S   25243.21006965  .00002303  00000-0  17346-3 0  9990
2 45060  53.0558  61.7149 0001411  85.2521 274.8629 15.06403436307753
Epoch: 2025-08-31T05:02Z
TLE epoch observation values (Epoch: 2025-08-31T05:02:30.017Z)
Latitude
-0.00004°
Longitude
6.45651°
Altitude
547.998 km
Speed
7.589 km/s
True Right ascension
04h 06m 51s
True Declination
0° 00' 00"
Sunlit
Object was in daylight at epoch
Visualization orbit readout
Latitude
Unknown
Longitude
Unknown
Altitude
Unknown
Speed
Unknown
Apparent Right ascension
Unknown
Apparent Declination
Unknown
Sunlit
N/A
Visualization observer readout
Local Sidereal Time
06:17:03
Azimuth
Unknown
Elevation
Unknown
Doppler factor
Unknown
Orbital elements
Apogee altitude
548.449 km
Perigee altitude
546.494 km
Semi-major axis
6,925.609 km
Eccentricity
0.00014
Inclination
53.0558°
RAAN
61.7149°
Arg. of periapsis
85.2521°
True anomaly
274.84679°
Mean anomaly
274.8629°
Eccentric anomaly
274.85484°
Mean motion
3.76579 °/min
Orbital period
95.6 mins
BSTAR
0.00017346
Loading maneuver chart data...
Computing Atmospheric mass density...

Documentation

Showing up to 5 results
|